Voltar ao catálogo

STRIX-BETA DEB

LostSSO
NORAD 53460·DEBRIS·🇯🇵 Japan

Lançado Feb 28, 2022 de Rocket Lab Launch Complex 1

Loading…

Próximas Passagens (próximas 24 horas)

TLE

ObsoletoSource: Space-Track

Época: Nov 18, 2022, 21:36 UTC

1 53460U 22020D   22322.90020928  .00001088  00000-0  91119-4 0  9997
2 53460  97.7893  16.3828 0015953 150.1717 210.0419 15.00472801 16288

Acompanhe STRIX-BETA DEB em tempo real com AllMySat

Download on the App Store